Date,TemperatureHighF,TemperatureAvgF,TemperatureLowF,DewpointHighF,DewpointAvgF,DewpointLowF,HumidityHigh,HumidityAvg,HumidityLow,PressureMaxIn,PressureMinIn,WindSpeedMaxMPH,WindSpeedAvgMPH,GustSpeedMaxMPH,PrecipitationSumIn
2013-1-1,63,42,32,37,32,29,91,72,32,30.28,30.19,0,0,0,0.00
2013-1-2,60,40,30,40,32,26,92,75,45,30.24,30.13,0,0,0,0.00
2013-1-3,57,40,31,40,33,28,90,78,50,30.27,30.16,0,0,0,0.00
2013-1-4,60,42,33,42,36,30,91,78,48,30.29,30.18,0,0,0,0.00
2013-1-5,51,43,34,44,39,30,92,86,75,30.25,30.06,0,0,0,0.41
2013-1-6,56,45,38,47,41,35,92,85,64,30.19,30.06,0,0,0,0.01
2013-1-7,62,47,36,51,41,34,91,83,63,30.25,30.15,0,0,0,0.01
2013-1-8,63,48,39,50,43,37,92,83,62,30.23,30.12,0,0,0,0.00
2013-1-9,50,44,40,47,40,34,91,85,75,30.15,29.97,0,0,0,0.02
2013-1-10,53,41,32,37,32,28,90,72,47,30.20,30.06,0,0,0,0.00
2013-1-11,56,41,34,38,32,28,82,70,50,30.25,30.11,0,0,0,0.00
2013-1-12,53,39,30,35,29,25,88,70,41,30.25,30.13,0,0,0,0.00
2013-1-13,54,37,26,35,26,14,88,66,29,30.26,30.18,0,0,0,0.00
2013-1-14,58,41,29,30,24,14,82,53,30,30.40,30.24,0,0,0,0.00
2013-1-15,57,39,30,36,30,26,92,72,41,30.48,30.39,0,0,0,0.00
2013-1-16,62,40,30,40,32,26,92,74,42,30.45,30.27,0,0,0,0.00
2013-1-17,66,42,30,45,35,28,92,76,42,30.27,30.16,0,0,0,0.00
2013-1-18,68,44,32,43,36,29,91,76,39,30.23,30.14,0,0,0,0.00
2013-1-19,68,45,32,44,36,29,95,73,39,30.25,30.16,0,0,0,0.00
2013-1-20,67,44,32,42,35,29,90,72,38,30.23,30.12,0,0,0,0.00
2013-1-21,68,45,32,44,36,28,87,71,38,30.18,30.08,0,0,0,0.00
2013-1-22,67,47,33,45,37,30,90,71,40,30.11,29.98,0,0,0,0.00
2013-1-23,53,49,48,47,44,38,91,81,68,30.09,29.95,0,0,0,0.44
2013-1-24,59,52,48,54,48,45,92,89,80,30.18,30.06,0,0,0,0.01
2013-1-25,61,54,47,54,50,44,95,86,74,30.19,30.04,0,0,0,0.00
2013-1-26,61,49,39,47,40,34,91,73,46,30.06,29.96,0,0,0,0.00
2013-1-27,58,44,32,39,34,28,90,70,43,30.18,30.05,0,0,0,0.00
2013-1-28,60,48,39,41,37,33,83,68,48,30.28,30.16,0,0,0,0.00
2013-1-29,67,50,38,44,39,33,85,67,42,30.35,30.26,0,0,0,0.00
2013-1-30,71,52,41,47,41,37,83,67,39,30.33,30.25,0,0,0,0.00
2013-1-31,70,49,38,49,41,34,91,75,45,30.29,30.18,0,0,0,0.00